Time,TemperatureF,DewpointF,PressureIn,WindDirection,WindDirectionDegrees,WindSpeedMPH,WindSpeedGustMPH,Humidity,HourlyPrecipIn,Conditions,Clouds,dailyrainin,SoftwareType,DateUTC
2013-01-15 14:06:00,37.3,24.3,30.24,North,360,2.0,2.0,59,0.00,,,0.00,Wunderground v.1.15,2013-01-15 19:06:00,
2013-01-15 14:07:00,37.3,24.3,30.24,North,360,2.0,2.0,59,0.00,,,0.00,Wunderground v.1.15,2013-01-15 19:07:00,
2013-01-15 14:09:00,37.3,25.1,30.24,North,360,1.0,1.0,61,0.00,,,0.00,Wunderground v.1.15,2013-01-15 19:09:00,
2013-01-15 14:10:00,37.3,25.1,30.23,North,360,1.0,1.0,61,0.00,,,0.00,Wunderground v.1.15,2013-01-15 19:10:00,
2013-01-15 14:17:00,37.5,24.9,30.23,ENE,65,1.0,1.0,60,0.00,,,0.00,Wunderground v.1.15,2013-01-15 19:17:00,
2013-01-15 14:22:00,37.7,25.1,30.23,ENE,65,1.0,2.0,60,0.00,,,0.00,Wunderground v.1.15,2013-01-15 19:22:00,
2013-01-15 14:27:00,37.9,25.2,30.22,NE,34,0.0,0.0,60,0.00,,,0.00,Wunderground v.1.15,2013-01-15 19:27:00,
2013-01-15 14:32:00,38.0,25.7,30.22,ENE,71,1.0,4.0,61,0.00,,,0.00,Wunderground v.1.15,2013-01-15 19:32:00,
2013-01-15 14:37:00,38.2,25.5,30.22,NE,51,2.0,2.0,60,0.00,,,0.00,Wunderground v.1.15,2013-01-15 19:37:00,
2013-01-15 14:42:00,38.2,25.9,30.21,East,94,2.0,5.0,61,0.00,,,0.00,Wunderground v.1.15,2013-01-15 19:42:00,
2013-01-15 14:47:00,38.2,25.1,30.22,East,96,1.0,1.0,59,0.00,,,0.00,Wunderground v.1.15,2013-01-15 19:47:00,
2013-01-15 14:52:00,38.2,25.1,30.23,NE,40,1.0,3.0,59,0.00,,,0.00,Wunderground v.1.15,2013-01-15 19:52:00,
2013-01-15 14:57:00,38.3,25.6,30.22,NE,40,0.0,3.0,60,0.00,,,0.00,Wunderground v.1.15,2013-01-15 19:57:00,
2013-01-15 15:02:00,38.4,25.3,30.22,ENE,62,1.0,1.0,59,0.00,,,0.00,Wunderground v.1.15,2013-01-15 20:02:00,
2013-01-15 15:07:00,38.2,25.5,30.22,East,88,1.0,4.0,60,0.00,,,0.00,Wunderground v.1.15,2013-01-15 20:07:00,
2013-01-15 15:12:00,38.3,25.2,30.22,ENE,60,1.0,4.0,59,0.00,,,0.00,Wunderground v.1.15,2013-01-15 20:12:00,
2013-01-15 15:18:00,38.1,25.0,30.23,East,94,1.0,4.0,59,0.00,,,0.00,Wunderground v.1.15,2013-01-15 20:18:00,
2013-01-15 15:23:00,37.9,25.2,30.23,East,94,0.0,3.0,60,0.00,,,0.00,Wunderground v.1.15,2013-01-15 20:23:00,
2013-01-15 15:28:00,37.8,25.1,30.23,East,84,0.0,3.0,60,0.00,,,0.00,Wunderground v.1.15,2013-01-15 20:28:00,
2013-01-15 15:33:00,37.7,24.6,30.23,NNE,15,0.0,3.0,59,0.00,,,0.00,Wunderground v.1.15,2013-01-15 20:33:00,
2013-01-15 15:38:00,37.5,24.9,30.23,NNE,15,0.0,3.0,60,0.00,,,0.00,Wunderground v.1.15,2013-01-15 20:38:00,
2013-01-15 15:43:00,37.3,25.1,30.24,ENE,63,0.0,3.0,61,0.00,,,0.00,Wunderground v.1.15,2013-01-15 20:43:00,
2013-01-15 15:48:00,37.3,25.8,30.23,ENE,63,0.0,3.0,63,0.00,,,0.00,Wunderground v.1.15,2013-01-15 20:48:00,
2013-01-15 15:53:00,37.2,25.4,30.24,ENE,63,0.0,3.0,62,0.00,,,0.00,Wunderground v.1.15,2013-01-15 20:53:00,
2013-01-15 15:58:00,37.1,25.3,30.24,ENE,61,0.0,3.0,62,0.00,,,0.00,Wunderground v.1.15,2013-01-15 20:58:00,
2013-01-15 16:03:00,37.0,25.2,30.25,ENE,61,0.0,3.0,62,0.00,,,0.00,Wunderground v.1.15,2013-01-15 21:03:00,
2013-01-15 16:09:00,36.8,25.4,30.24,ENE,61,0.0,3.0,63,0.00,,,0.00,Wunderground v.1.15,2013-01-15 21:09:00,
2013-01-15 16:14:00,36.6,24.8,30.24,NE,44,0.0,3.0,62,0.00,,,0.00,Wunderground v.1.15,2013-01-15 21:14:00,
2013-01-15 16:19:00,36.4,24.6,30.24,NE,44,0.0,3.0,62,0.00,,,0.00,Wunderground v.1.15,2013-01-15 21:19:00,
2013-01-15 16:24:00,36.3,24.9,30.24,NE,44,0.0,3.0,63,0.00,,,0.00,Wunderground v.1.15,2013-01-15 21:24:00,
2013-01-15 16:29:00,36.2,25.2,30.25,NE,44,0.0,3.0,64,0.00,,,0.00,Wunderground v.1.15,2013-01-15 21:29:00,
2013-01-15 16:34:00,36.0,25.0,30.25,NE,44,0.0,3.0,64,0.00,,,0.00,Wunderground v.1.15,2013-01-15 21:34:00,